www.pogodaiklimat.ru

Погода и климат >> Архив погоды >> Буркина-Фасо >> Fada N`Gourma


ПОГОДА в Fada N`Gourma

  • Прогноз погоды в Fada N`Gourma
  • Монитор погоды в Fada N`Gourma
  • Климат города

АРХИВ ПОГОДЫ в Fada N`Gourma

Время (UTC), дата Ветер
(напр.,м/с)
 
Видим.   Явления Облачность Т
(С)
Тd
(С)
f
(%)
Тe
(С)
Тes
(С)
Комфортность P
(гПа)
Po
(гПа)
Тmin
(С)
Tmax
(С)
R
(мм)
R24
(мм)
S
(см)
09 14.10 ЮВ 3 10 км 9/0
[Ci sp]
+30.5 +22.0 61 +39 +46 очень
душно
1011.6 977.3
12 14.10 ЮВ 3 10 км 9/0
[Ci sp]
+35.0 +15.9 32 +37 +50 очень
душно
1009.8 975.7
15 14.10 ЮВ 3 10 км 9/0
[Ci sp]
+35.4 +13.2 26 +36 +42 очень
жарко
1008.4 974.2
18 14.10 В 2 10 км 9/0
[Ci sp]
+31.2 +18.3 46 +36 +36 очень
душно
1009.5 975.0 +36.3
00 15.10 ЮВ 1 10 км 9/0
[Ci sp]
+25.0 +19.9 73 +31 +31 очень
душно
1011.2 977.0
03 15.10 Ю 1 10 км 9/0
[Ci sp]
+23.4 +20.4 83 +31 +31 очень
душно
1009.8 975.5
06 15.10 ЮЗ 1 10 км 9/0
[Ci sp]
+22.4 +20.6 90 +29 +29 очень
душно
1011.3 976.7 +22.4
09 15.10 Ю 1 10 км 9/0
[Ci sp]
+30.5 +21.3 58 +38 +47 очень
душно
1013.3 978.8
12 15.10 В 5 10 км 9/0
[Ci sp]
+35.0 +13.0 27 +35 +43 очень
жарко
1011.4 977.1
15 15.10 В 4 10 км 9/1 600 м
[Sc Ci sp]
+35.2 +15.2 30 +37 +41 очень
душно
1009.2 975.0
18 15.10 В 1 10 км 9/0
[Ci sp]
+31.3 +17.3 43 +35 +35 очень
душно
1010.6 976.0 +35.7
00 16.10 Ю 1 10 км 9/0
[Ci sp]
+24.2 +18.8 72 +29 +29 душно 1011.7 977.5
03 16.10 З 1 10 км 9/0
[Ci sp]
+23.0 +19.5 81 +30 +30 очень
душно
1011.1 976.8
06 16.10 штиль 0 10 км 9/0
[Ac trans Ci sp]
+21.7 +19.9 90 +27 +27 душно 1012.7 978.0 +21.7
09 16.10 С 2 10 км 9/0
[Ci sp]
+30.4 +16.9 44 +34 +41 очень
душно
1014.9 980.4
12 16.10 В 4 10 км 9/0
[Ci sp]
+35.3 +6.4 17 +33 +43 жарко 1013.2 978.9
15 16.10 СВ 4 10 км 9/0
[Ci sp]
+36.2 +7.9 18 +34 +39 очень
жарко
1010.3 976.1
18 16.10 В 1 10 км 9/0
[Ci sp]
+31.7 +12.6 31 +32 +32 жарко 1011.7 977.1 +36.4
00 17.10 ЮВ 2 10 км 9/0
[Ci sp]
+24.6 +16.5 61 +28 +28 душно 1012.7 978.5
03 17.10 ЮВ 1 10 км 9/0
[Ci sp]
+23.5 +17.2 68 +27 +27 душно 1011.6 977.3
06 17.10 штиль 0 10 км 9/0
[Ac trans Ci sp]
+21.8 +18.2 80 +27 +27 душно 1012.6 977.9 +21.8
09 17.10 СВ 2 10 км 9/0
[Ac trans Ci sp]
+30.8 +13.5 35 +32 +38 жарко 1014.9 980.4
12 17.10 СВ 3 10 км 9/0
[Ci sp]
+35.0 +9.4 21 +34 +46 очень
жарко
1012.6 978.3
15 17.10 В 4 10 км 9/0
[Ci sp]
+36.4 +6.4 16 +34 +39 очень
жарко
1010.3 976.1
18 17.10 В 1 10 км 9/0
[Ci sp]
+31.6 +15.9 39 +34 +34 душно 1011.1 976.5 +36.9
00 18.10 штиль 0 10 км 9/0
[Ci sp]
+23.5 +16.8 66 +27 +27 душно 1012.5 978.2
03 18.10 штиль 0 10 км 9/0
[Ci sp]
+22.0 +17.4 75 +26 +26 душно 1011.1 976.8
06 18.10 штиль 0 10 км 9/0
[Ci sp]
+20.5 +18.3 87 +24 +24 комфорт 1011.9 977.2 +20.5
09 18.10 ЮВ 1 10 км 9/0
[Ci sp]
+30.1 +15.7 42 +33 +42 душно 1013.4 978.9
12 18.10 В 2 10 км 9/0
[Ci sp]
+36.0 +8.4 19 +34 +49 очень
жарко
1011.5 977.2
15 18.10 В 3 10 км 9/0
[Ci sp]
+37.0 +7.7 17 +35 +41 очень
жарко
1009.0 974.8
18 18.10 В 2 10 км 9/0
[Ci sp]
+32.5 +10.9 27 +32 +32 жарко 1010.1 975.5 +37.5
00 19.10 штиль 0 10 км 9/0
[Ci sp]
+24.4 +14.9 55 +27 +27 жарко 1011.6 977.4
03 19.10 В 1 10 км 9/0
[Ci sp]
+22.0 +16.9 73 +26 +26 душно 1010.1 975.9
06 19.10 штиль 0 10 км 9/0
[Ci sp]
+21.4 +16.7 75 +25 +25 комфорт 1011.3 976.7 +21.4
09 19.10 Ю 1 10 км 9/0
[Ci sp]
+30.4 +15.3 40 +33 +41 душно 1013.4 978.9
12 19.10 СВ 3 10 км 9/0
[Ci sp]
+36.4 +8.3 18 +35 +47 очень
жарко
1011.3 977.1
15 19.10 СВ 4 10 км 9/0
[Ci sp]
+37.2 +3.6 12 +34 +39 очень
жарко
1009.4 975.2
18 19.10 С 1 10 км 9/0
[Ci sp]
+31.6 +8.4 24 +35 +35 очень
душно
1010.1 975.6 +38.0
21 19.10 штиль 0 10 км 9/0
[Ci sp]
+27.5 +14.9 46 +30 +30 жарко 1011.8 981.6
00 20.10 штиль 0 10 км 9/0
[Ci sp]
+23.7 +15.0 58 +27 +27 жарко 1011.7 977.5
03 20.10 З 1 10 км 9/0
[Ci sp]
+21.6 +16.6 73 +25 +25 комфорт 1009.9 975.7
15 20.10 С 2 10 км 9/0
[Ci sp]
+36.8 +8.8 18 +35 +42 очень
жарко
1008.8 974.6
00 21.10 СВ 1 10 км 9/0
[Ci sp]
+24.2 +17.4 66 +28 +28 душно 1012.1 977.9
03 21.10 штиль 0 10 км 9/0
[Ci sp]
+21.9 +17.8 78 +27 +27 душно 1011.1 976.8
06 21.10 штиль 0 10 км 9/0
[Ci sp]
+20.4 +15.8 75 +23 +23 комфорт 1011.9 977.2 +20.4

 

Местоположение метеостанции Fada N`Gourma (Буркина-Фасо): широта 12.03 долгота 0.37 высота над уровнем моря 309 м.

В архиве по умолчанию представлена погода в Fada N`Gourma за последнюю неделю. Архивные данные за месяц целиком и за предыдущие месяцы, начиная с января 2011 года, Вы можете получить, выбрав интересующий диапазон дат из раскрывающегося списка и нажав кнопку "Ввод!".

Внимание! Время в таблицах - всемирное. Для получения местного времени необходимо прибавить поправку, которая в Fada N`Gourma равна 0 ч.

Смотрите также архив погоды в соседних городах и на ближайших метеорологических станциях:

Погода в Dapaon (Того) (129 км)
Погода в Mango (Того) (185 км)
Погода в Po (Буркина-Фасо) (192 км)
Погода в Navrongo (Гана) (204 км)
Погода в Ouagadougou (Буркина-Фасо) (209 км)
Погода в Natitingou (Бенин) (220 км)
Погода в Dori (Буркина-Фасо) (227 км)
Погода в Niamey-Aero (Нигер) (253 км)
Погода в Niamtougou (Того) (264 км)
Погода в Tillabery (Нигер) (268 км)

Пояснения к столбцам:

Ветер - указаны скорость ветра в м/с - средняя за 10 мин, порывы в срок и между сроками (в фигурных скобках) и направление, откуда дует ветер: С - северный, СВ - северо-восточный, В - восточный, ЮВ - юго-восточный, Ю - южный, ЮЗ - юго-западный, З - западный, СЗ - северо-западный.
Видимость - горизонтальная дальность видимости в метрах или километрах. При видимости от 1 до 10 км при отсутствии осадков обычно наблюдается дымка, при ухудшении видимости до 1 км и менее - туман. В сухую погоду видимость может ухудшаться дымом, пылью или мглою.
Явления - указаны атмосферные явления, наблюдавшиеся в срок или в последний час перед сроком; фигурными скобками обозначены явления, наблюдавшиеся между сроками (за 1-3 часа до срока); квадратными скобками обозначены град или гололедные отложения с указанием их диаметра в мм.
Облачность - указаны через наклонную черту общая и нижняя облачность в баллах и высота нижней границы облаков в метрах; квадратными скобками обозначены формы облаков: Ci - перистые, Cs - перисто-слоистые, Cc - перисто-кучевые, Ac - высококучевые, As - высокослоистые, Sc - слоисто-кучевые, Ns - слоисто-дождевые, Cu - кучевые, Cb - кучево-дождевые. Подробнее классификацию облаков см. в Атласе облаков (PDF).
T - Температура воздуха - температура, измеренная на высоте 2 м над землей.
Td - Температура точки росы - температура, при понижении до которой содержащийся в воздухе водяной пар достигнет насыщения.
f - Относительная влажность воздуха - влажноcть воздуха, измеренная на высоте 2 м над землей.
Te - Эффективная температура - температура, которую ощущает одетый по сезону человек в тени. Характеристика душности погоды. При расчете учитывается влияние влажности воздуха и скорости ветра на теплоощущения человека.
Tes - Эффективная температура на солнце - температура, которую ощущает человек, с поправкой на солнечный нагрев. Характеристика знойности погоды. Зависит от высоты солнца над горизонтом, облачности и скорости ветра. Ночью, в пасмурную погоду, а также при ветре 12 м/с и более поправка равна нулю.
P - Атмосферное давление - приведенное к уровню моря атмосферное давление.
Po - Атмосферное давление - измеренное на уровне метеостанции атмосферное давление.
Tmin - Минимальная температура - минимум температуры воздуха на высоте 2 м над землей.
Tmax - Максимальная температура - максимум температуры воздуха на высоте 2 м над землей.
R - Количество осадков - Количество выпавших осадков за период времени, мм. При наведении курсора мыши на число - период времени, за который выпало указанное количество осадков.
R24 - Количество осадков - Количество выпавших осадков за 24 часа, мм.
S - Снежный покров - Высота снежного покрова, см. При наведении курсора мыши на число - состояние снежного покрова и степень покрытия местности в баллах.